Weather History for De Queen, AR

Change the Weather History Date:

Wednesday, January 16, 2013

  Actual Average Record
Temperature  
Mean Temperature 37 °F 41 °F  
Max Temperature 50 °F 53 °F 76 °F (1943)
Min Temperature 24 °F 29 °F 13 °F (1992)
Degree Days  
Heating Degree Days 28 24  
Month to date heating degree days 371 378  
Since 1 July heating degree days 1496 1587  
Cooling Degree Days 0 0  
Month to date cooling degree days 0 0  
Year to date cooling degree days 0 0  
Moisture  
Dew Point 19 °F    
Average Humidity 51    
Maximum Humidity 85    
Minimum Humidity 16    
Precipitation  
Precipitation 0.00 in 0.11 in 0.86 in (2004)
Month to date precipitation 1.30 1.75  
Year to date precipitation 1.30 1.75  
Snow  
Snow 0.00 in - - ()
Month to date snowfall T  
Since 1 July snowfall 4.5  
Snow Depth 0.00 in    
Sea Level Pressure  
Sea Level Pressure 30.18 in    
Wind  
Wind Speed 4 mph (WNW)    
Max Wind Speed 13 mph    
Max Gust Speed 18 mph    
Visibility 10 miles    
Events      
T = Trace of Precipitation, MM = Missing Value Source: NWS Daily Summary

Daily Weather History Graph

Daily Weather History Graph

Search for Another Location

Airport:

Trip Planner

Search our weather history database for the weather conditions in past years. The results will help you decide how hot, cold, wet, or windy it might be!

Date:

Astronomy

Jan. 16, 2013 Rise Set
Actual Time 7:22 AM CST 5:32 PM CST
Civil Twilight 6:55 AM CST 5:59 PM CST
Nautical Twilight 6:24 AM CST 6:30 PM CST
Astronomical Twilight 5:54 AM CST 7:00 PM CST
Moon 10:16 AM CST (1/16) 11:06 PM CST (1/16)
Length of Visible Light 11h 04m
Length of Day
10h 10m
Waxing Crescent, 28% of the Moon is Illuminated
Jan 16
Waxing Crescent
Jan 18
First Quarter
Jan 26
Full
Feb 3
Last Quarter
Feb 10
New

Hourly Weather History & Observations

Time (CST) Temp. Windchill Dew Point Humidity Pressure Visibility Wind Dir Wind Speed Gust Speed Precip Events Conditions
12:53 AM 36.0 °F 32.1 °F 27.0 °F 70% 30.17 in 10.0 mi NW 4.6 mph - N/A   Overcast
1:53 AM 35.1 °F 30.1 °F 25.0 °F 67% 30.16 in 10.0 mi NNW 5.8 mph - N/A   Overcast
2:53 AM 35.1 °F 31.0 °F 24.1 °F 64% 30.18 in 10.0 mi NNW 4.6 mph - N/A   Overcast
3:53 AM 34.0 °F 31.0 °F 24.1 °F 67% 30.18 in 10.0 mi NW 3.5 mph - N/A   Overcast
4:53 AM 33.1 °F 30.0 °F 24.1 °F 70% 30.17 in 10.0 mi WNW 3.5 mph - N/A   Overcast
5:53 AM 30.0 °F 24.1 °F 23.0 °F 75% 30.17 in 10.0 mi West 5.8 mph - N/A   Clear
6:53 AM 28.9 °F 25.2 °F 23.0 °F 78% 30.20 in 7.0 mi SSW 3.5 mph - N/A   Clear
7:53 AM 27.0 °F 20.5 °F 23.0 °F 85% 30.22 in 9.0 mi West 5.8 mph - N/A   Clear
8:53 AM 30.9 °F 25.2 °F 23.0 °F 72% 30.24 in 10.0 mi West 5.8 mph - N/A   Clear
9:53 AM 37.0 °F 33.3 °F 19.9 °F 50% 30.24 in 10.0 mi WNW 4.6 mph - N/A   Clear
10:53 AM 43.0 °F 39.5 °F 8.1 °F 24% 30.20 in 10.0 mi NNE 5.8 mph - N/A   Clear
11:53 AM 45.0 °F - 6.1 °F 20% 30.17 in 10.0 mi Calm Calm - N/A   Clear
12:53 PM 46.9 °F - 6.1 °F 19% 30.14 in 10.0 mi WNW 5.8 mph - N/A   Clear
1:53 PM 48.0 °F - 5.0 °F 17% 30.12 in 10.0 mi North - - N/A   Clear
2:53 PM 48.9 °F - 9.0 °F 20% 30.11 in 10.0 mi WNW 10.4 mph - N/A   Clear
3:53 PM 48.9 °F - 12.0 °F 23% 30.12 in 10.0 mi West 6.9 mph - N/A   Clear
4:53 PM 48.0 °F - 16.0 °F 28% 30.13 in 10.0 mi West 9.2 mph - N/A   Clear
5:53 PM 42.1 °F 37.7 °F 19.9 °F 41% 30.14 in 10.0 mi WSW 6.9 mph - N/A   Clear
6:53 PM 37.9 °F 35.5 °F 21.9 °F 53% 30.17 in 10.0 mi SW 3.5 mph - N/A   Clear
7:53 PM 32.0 °F - 23.0 °F 69% 30.19 in 10.0 mi Calm Calm - N/A   Clear
8:53 PM 28.0 °F - 25.0 °F 88% 30.20 in 10.0 mi Calm Calm - N/A   Clear
9:53 PM 26.1 °F - 23.0 °F 88% 30.21 in 10.0 mi Calm Calm - N/A   Clear
10:53 PM 26.1 °F - 21.9 °F 84% 30.20 in 10.0 mi Calm Calm - N/A   Clear
11:53 PM 25.0 °F - 21.9 °F 88% 30.21 in 10.0 mi Calm Calm - N/A   Clear